Regional Weather Roundup
Issued by NWS

Home | Current Version | Previous Version | Graphics & Text | Print | Product List | Glossary On
Versions: 1 2 3 4 5 6 7 8 9 10 11 12 13 14 15 16 17 18 19 20 21 22 23 24 25 26 27 28 29 30 31 32 33 34 35 36 37 38 39 40 41 42 43 44 45 46 47 48 49 50
000
ASUS43 KLOT 200710
RWRIL

ILLINOIS REGIONAL WEATHER ROUNDUP
NATIONAL WEATHER SERVICE CHICAGO/ROMEOVILLE IL
200 AM CDT WED AUG 20 2014

NOTE: "FAIR" INDICATES FEW OR NO CLOUDS BELOW 12,000 FEET WITH NO
SIGNIFICANT WEATHER AND/OR OBSTRUCTIONS TO VISIBILITY.

* THESE STATIONS ARE NOT UNDER NWS QUALITY CONTROL. THEY ALSO MAY NOT
  REPORT WEATHER SUCH AS PRECIPITATION OR FOG.

ILZ001-002-007-009-015-016-024-200800-
NORTHWEST ILLINOIS

CITY           SKY/WX    TMP DP  RH WIND       PRES   REMARKS
MOLINE         CLEAR     66  62  87 W3        29.83R
STERLING*      CLEAR     66  63  88 W5        29.83R
SAVANNA*       MOCLDY    65  62  90 SE3       29.82R
$$

ILZ003-004-008-010-011-017-018-200800-
NORTH CENTRAL ILLINOIS

CITY           SKY/WX    TMP DP  RH WIND       PRES   REMARKS
ROCKFORD       CLEAR     64  61  90 S3        29.83S
FREEPORT*      CLEAR     64  61  90 W6        29.84R
ROCHELLE*      CLEAR     60  59  94 S5        29.83R
DE KALB*       CLEAR     65  62  89 W5        29.82S
PERU*          CLEAR     65  63  91 W8        29.84R
$$

ILZ005-006-012>014-019>023-200800-
NORTHEAST ILLINOIS

CITY           SKY/WX    TMP DP  RH WIND       PRES   REMARKS
CHICAGO-OHARE  CLEAR     69  61  75 W6        29.78F
CHICAGO-MIDWAY CLEAR     72  66  81 W7        29.79S
AURORA         CLEAR     64  60  87 SW3       29.81S
LANSING*       CLEAR     68  66  94 W5        29.80S
JOLIET*        CLEAR     64  62  94 CALM      29.81F FOG
WAUKEGAN       CLEAR     66  63  90 CALM      29.78S
DUPAGE AIRPORT CLEAR     67  62  84 W5        29.80S
KANKAKEE*      CLEAR     67  66  95 W6        29.82S
WHEELING       CLEAR     70  64  81 CALM      29.80S
MORRIS*        CLEAR     65  65  99 W6        29.81S
ROMEOVILLE*    CLEAR     66  65  97 W6        29.81S
NORTHERLY ISL    N/A     74  63  68 W6          N/A
$$

LMZ740>746-200800-
SOUTHERN LAKE MICHIGAN

STATION/POSITION SKY/WX   TEMP    WIND        PRES    VSBY  WAVE
                          AIR SEA DIR/SP/G                  HT/PER
                          (F)     (DEG/KT/KT) (MB)    (MI)  (FT/S)
SOUTHERN BUOY              67 66  280/  6/  6 1007.7F         1
WAUKEGAN HARBOR            71     290/  6/  9   N/A
HARRISON CRIB              73     270/ 10/ 11   N/A
BURNHAM HARBOR             74     260/  4/  6   N/A
CALUMET HARBOR             72     240/  4/  5 1007.5S
BURNS HARBOR               73     240/  8/ 10   N/A
MICHIGAN CITY              72     220/ 10/ 12   N/A
MICHIGAN CITY 6N           71 70  240/  8/ 10   N/A           1/ 2
ST. JOSEPH                 71 70  240/  8/ 12   N/A           1/ 3
$$

ILZ025>027-034>036-040-047-049-050-058-095>099-200800-
WEST-CENTRAL ILLINOIS

CITY           SKY/WX    TMP DP  RH WIND       PRES   REMARKS
QUINCY         CLEAR     72  70  93 CALM      29.83F
GALESBURG*     CLEAR     62  60  96 CALM      29.84S FOG
MACOMB*        CLEAR     65  65 100 CALM      29.85F
JACKSONVILLE*  CLEAR     72  71  97 N3        29.84F
PITTSFIELD*    CLEAR     72  68  88 CALM      29.85S
$$

ILZ028>032-037-038-041>044-048-051>054-059>061-200800-
CENTRAL ILLINOIS

CITY           SKY/WX    TMP DP  RH WIND       PRES   REMARKS
PONTIAC        CLEAR     68  66  94 W3        29.82F
DECATUR        CLEAR     74  71  91 W5        29.84S
PEORIA         CLEAR     70  67  90 CALM      29.84S
LACON*         CLEAR     65  64  94 CALM      29.83R
LINCOLN*       CLEAR     67  65  94 CALM      29.81S
SPRINGFIELD    PTCLDY    69  67  93 SW3       29.84S FOG
TAYLORVILLE    FOG       68  68 100 CALM      29.83F VSB 1/2
$$

ILZ033-039-045-046-055>057-062-063-200800-
EAST-CENTRAL ILLINOIS

CITY           SKY/WX    TMP DP  RH WIND       PRES   REMARKS
CHAMPAIGN      CLEAR     66  65  96 SW3       29.84S
DANVILLE*      CLEAR     67  66  97 W5        29.81S
RANTOUL*       CLEAR     71  67  87 W7        29.84S
MATTOON        CLEAR     73  69  87 W6        29.84S
PARIS*         CLEAR     67  67 100 CALM      29.85S FOG
$$

ILZ079-100>102-200800-
SOUTHWEST ILLINOIS

CITY           SKY/WX    TMP DP  RH WIND       PRES   REMARKS
ALTON          CLEAR     69  69 100 CALM      29.85S FOG
BELLEVILLE     CLEAR     72  72 100 E3        29.83S FOG
CAHOKIA*       CLEAR     71  70  96 CALM      29.83F
SPARTA*        CLEAR     70  69  97 CALM      29.85S
$$

ILZ064>066-069>071-074>076-080>082-084>086-088>090-092>094-200800-
SOUTH-CENTRAL ILLINOIS

CITY           SKY/WX    TMP DP  RH WIND       PRES   REMARKS
CARBONDALE     CLEAR     68  66  93 E3        29.85R
CAIRO*           N/A     76  73  90 SW3       29.84S
MARION         CLEAR     70  68  94 CALM      29.85S
MT. VERNON     CLEAR     68  64  88 CALM      29.85F
CENTRALIA*     CLEAR     68  66  93 CALM      29.85S FOG
SALEM*         CLEAR     72  71  97 CALM      29.86S FOG
$$

ILZ067-068-072-073-078-083-087-091-200800-
SOUTHEAST ILLINOIS

CITY           SKY/WX    TMP DP  RH WIND       PRES   REMARKS
LAWRENCEVILLE  CLEAR     73  72  96 W5        29.86R
FLORA*         CLEAR     69  68  98 CALM      29.86S
FAIRFIELD*     CLEAR     72  70  94 CALM      29.85F FOG
HARRISBURG*    CLEAR     68  68 100 CALM      29.86F
ROBINSON*      FOG       72  71  98 CALM      29.85F VSB 1/2
CARMI*         CLEAR     70  70 100 CALM      29.85F
$$

ABBREVIATIONS USED IN REMARKS
   TC - TEMPERATURE IN CELSIUS
  WCI - WIND CHILL INDEX
   HX - HEAT INDEX
  VSB - VISIBILITY
$$




USA.gov is the U.S. government's official web portal to all federal, state and local government web resources and services.